CEB431 RPLL-RPVM

Flight info

Callsign CEB431
Flight time N/A
Altitude 35000
Route IPATA2R IPATA W25 BATAY BATAY3P
Aircraft A21N/M-SDE2E3FGHIRWXY/LB1

Departure

Time 2026-05-01 15:16
Airport Ninoy Aquino International Airport (RPLL)

Arrival

Time N/A
Airport Mactan Cebu International Airport (RPVM)
Time Latitude Longitude Altitude Speed Heading
2026-05-01 14:42 14.51700 121.01656 83 ft 0 kts 225°
2026-05-01 14:59 14.51701 121.01657 83 ft 1 kts 225°
2026-05-01 14:59 14.51712 121.01668 83 ft 2 kts 224°
2026-05-01 14:59 14.51723 121.01679 83 ft 2 kts 225°
2026-05-01 15:00 14.51742 121.01695 83 ft 2 kts 198°
2026-05-01 15:00 14.51751 121.01697 83 ft 2 kts 185°
2026-05-01 15:00 14.51771 121.01695 83 ft 2 kts 155°
2026-05-01 15:01 14.51782 121.01688 83 ft 0 kts 137°
2026-05-01 15:01 14.51787 121.01683 83 ft 1 kts 134°
2026-05-01 15:01 14.51787 121.01682 83 ft 0 kts 134°
2026-05-01 15:05 14.51786 121.01683 83 ft 0 kts 134°
2026-05-01 15:05 14.51779 121.01691 83 ft 2 kts 134°
2026-05-01 15:05 14.51761 121.01709 83 ft 4 kts 134°
2026-05-01 15:05 14.51734 121.01737 83 ft 6 kts 135°
2026-05-01 15:06 14.51694 121.01772 83 ft 8 kts 151°
2026-05-01 15:06 14.51631 121.01777 83 ft 10 kts 204°
2026-05-01 15:06 14.51573 121.01724 83 ft 12 kts 225°
2026-05-01 15:06 14.51509 121.01659 83 ft 13 kts 225°
2026-05-01 15:07 14.51427 121.01621 83 ft 14 kts 149°
2026-05-01 15:07 14.51354 121.01696 83 ft 15 kts 135°
2026-05-01 15:07 14.51276 121.01776 83 ft 16 kts 135°
2026-05-01 15:07 14.51196 121.01861 83 ft 16 kts 135°
2026-05-01 15:08 14.51117 121.01941 83 ft 16 kts 135°
2026-05-01 15:08 14.51032 121.01978 83 ft 14 kts 226°
2026-05-01 15:08 14.50981 121.01880 83 ft 16 kts 241°
2026-05-01 15:08 14.50923 121.01777 83 ft 17 kts 241°
2026-05-01 15:09 14.50862 121.01668 83 ft 17 kts 240°
2026-05-01 15:09 14.50800 121.01553 83 ft 18 kts 240°
2026-05-01 15:09 14.50734 121.01435 83 ft 19 kts 239°
2026-05-01 15:09 14.50666 121.01314 83 ft 19 kts 240°
2026-05-01 15:10 14.50597 121.01189 83 ft 20 kts 240°
2026-05-01 15:10 14.50454 121.00932 83 ft 20 kts 240°
2026-05-01 15:10 14.50381 121.00800 83 ft 21 kts 240°
2026-05-01 15:11 14.50307 121.00667 83 ft 21 kts 240°
2026-05-01 15:11 14.50157 121.00397 83 ft 21 kts 240°
2026-05-01 15:11 14.50081 121.00260 83 ft 22 kts 240°
2026-05-01 15:12 14.50004 121.00122 83 ft 22 kts 240°
2026-05-01 15:12 14.49877 120.99970 83 ft 2 kts 159°
2026-05-01 15:14 14.49837 120.99990 83 ft 6 kts 146°
2026-05-01 15:15 14.49839 121.00110 83 ft 15 kts 60°
2026-05-01 15:15 14.50437 121.01186 86 ft 163 kts 60°
2026-05-01 15:16 14.51701 121.03336 1756 ft 175 kts 59°
2026-05-01 15:16 14.53003 121.05464 3546 ft 191 kts 59°
2026-05-01 15:17 14.54558 121.07980 5000 ft 233 kts 59°
2026-05-01 15:18 14.56700 121.11486 7271 ft 260 kts 59°
2026-05-01 15:19 14.63402 121.22820 13640 ft 295 kts 59°
2026-05-01 15:19 14.64419 121.24672 14443 ft 300 kts 65°
2026-05-01 15:20 14.64151 121.28836 15913 ft 312 kts 122°
2026-05-01 15:20 14.62637 121.30458 16385 ft 322 kts 144°
2026-05-01 15:20 14.60677 121.31705 16642 ft 336 kts 147°
2026-05-01 15:21 14.58618 121.33003 16889 ft 351 kts 147°
2026-05-01 15:21 14.56510 121.34366 17123 ft 364 kts 146°
2026-05-01 15:21 14.54328 121.35802 17372 ft 377 kts 146°
2026-05-01 15:21 14.52105 121.37282 17797 ft 383 kts 146°
2026-05-01 15:22 14.47608 121.40293 18858 ft 387 kts 146°
2026-05-01 15:22 14.45338 121.41820 19349 ft 390 kts 146°
2026-05-01 15:22 14.43048 121.43362 19833 ft 393 kts 146°
2026-05-01 15:23 14.40739 121.44917 20311 ft 396 kts 146°
2026-05-01 15:23 14.38422 121.46477 20778 ft 399 kts 146°
2026-05-01 15:23 14.36093 121.48045 21241 ft 401 kts 146°
2026-05-01 15:23 14.33739 121.49631 21691 ft 404 kts 146°
2026-05-01 15:24 14.31371 121.51225 22122 ft 407 kts 147°
2026-05-01 15:24 14.28994 121.52825 22566 ft 409 kts 147°
2026-05-01 15:24 14.26600 121.54436 23016 ft 412 kts 147°
2026-05-01 15:24 14.24194 121.56054 23445 ft 414 kts 147°
2026-05-01 15:25 14.21766 121.57688 23863 ft 417 kts 147°
2026-05-01 15:25 14.19321 121.59333 24278 ft 420 kts 147°
2026-05-01 15:25 14.16861 121.60987 24678 ft 423 kts 147°
2026-05-01 15:25 14.14387 121.62651 25072 ft 426 kts 147°
2026-05-01 15:26 14.11892 121.64326 25455 ft 429 kts 147°
2026-05-01 15:26 14.09380 121.66014 25827 ft 432 kts 147°
2026-05-01 15:26 14.06854 121.67711 26190 ft 435 kts 147°
2026-05-01 15:26 14.04310 121.69420 26555 ft 438 kts 147°
2026-05-01 15:27 14.01753 121.71138 26914 ft 440 kts 147°
2026-05-01 15:27 13.99177 121.72867 27261 ft 443 kts 147°
2026-05-01 15:27 13.96590 121.74606 27599 ft 445 kts 147°
2026-05-01 15:28 13.91365 121.78115 28236 ft 451 kts 147°
2026-05-01 15:28 13.88722 121.79887 28550 ft 454 kts 148°
2026-05-01 15:28 13.86095 121.81699 28851 ft 456 kts 146°
2026-05-01 15:29 13.80931 121.85562 29501 ft 460 kts 144°
2026-05-01 15:29 13.78349 121.87511 29835 ft 461 kts 144°
2026-05-01 15:29 13.73193 121.91403 30724 ft 457 kts 144°
2026-05-01 15:30 13.68942 121.94612 31481 ft 453 kts 144°
2026-05-01 15:31 13.58032 122.02836 33319 ft 445 kts 145°
2026-05-01 15:31 13.53030 122.06601 33901 ft 447 kts 144°
2026-05-01 15:32 13.48000 122.10385 34422 ft 449 kts 144°
2026-05-01 15:32 13.42956 122.14178 34912 ft 450 kts 144°
2026-05-01 15:34 13.27720 122.25625 34948 ft 452 kts 144°